Regional Weather Roundup
Issued by NWS Northern Indiana

Home | Current Version | Previous Version | Graphics & Text | Print | Product List | Glossary Off
Versions: 1 2 3 4 5 6 7 8 9 10 11 12 13 14 15 16 17 18 19 20 21 22 23 24 25 26 27 28 29 30 31 32 33 34 35 36 37 38 39 40 41 42 43 44 45 46 47 48 49 50

000
ASUS43 KIWX 272300
RWRIWX

KIWX WEATHER ROUNDUP
NATIONAL WEATHER SERVICE NORTHERN INDIANA
600 PM EST MON FEB 27 2017

NOTE: "FAIR" INDICATES FEW OR NO CLOUDS BELOW 12,000 FEET WITH NO
SIGNIFICANT WEATHER AND/OR OBSTRUCTIONS TO VISIBILITY.

* THESE STATIONS ARE NOT UNDER NWS QUALITY CONTROL. THEY ALSO MAY NOT
  REPORT WEATHER SUCH AS PRECIPITATION OR FOG.

INZ001>027-280000-
NORTHERN INDIANA

CITY           SKY/WX    TMP DP  RH WIND       PRES   REMARKS
GARY*          MOCLDY    55  28  35 S6        30.09S
KNOX*          CLEAR     50  12  22 SE7       30.10F
SOUTH BEND     CLEAR     49  33  54 S9        30.12F
ELKHART*       CLEAR     48  32  53 S9        30.13F
GOSHEN         PTCLDY    49  32  52 SE7       30.13F
ANGOLA*        MOCLDY    46  36  66 S5        30.15S
FORT WAYNE     MOCLDY    48  37  65 SE7       30.16F
PERU/GRISSOM   PTCLDY    49  40  72 SE12      30.11S

$$
INZ028>050-280000-
CENTRAL INDIANA

CITY           SKY/WX    TMP DP  RH WIND       PRES   REMARKS
LAFAYETTE      MOCLDY    52  38  58 SE8       30.10S
KOKOMO*        PTCLDY    48  39  71 S13       30.14S
MUNCIE*        CLOUDY    49  39  68 S7        30.15F
INDIANAPOLIS   MOCLDY    49  41  74 SE10      30.13F

$$
MIZ043>046-050>051-056>058-064>065-071>073-077>080-280000-
SOUTHWEST LOWER MICHIGAN

CITY           SKY/WX    TMP DP  RH WIND       PRES   REMARKS
BATTLE CREEK   PTCLDY    47  33  58 S13       30.14R
BENTON HARBOR  PTCLDY    50  31  48 S8        30.12S
COLDWATER*     MOCLDY    47  31  53 S6        30.15S
HILLSDALE*     CLOUDY    45  32  61 S6        30.15S
HOLLAND        CLEAR     45  33  63 W7        30.13S
GRAND RAPIDS   MOCLDY    48  28  46 SW5       30.12R
KALAMAZOO      MOCLDY    49  31  49 S8G16     30.13S
STURGIS*       CLOUDY    47  34  59 S7        30.14S
THREE RIVERS*  MOCLDY    47  33  57 S7        30.14F

$$
OHZ001>008-015>018-024>025-280000-
NORTHWEST OHIO

CITY           SKY/WX    TMP DP  RH WIND       PRES   REMARKS
DEFIANCE       CLOUDY    47  33  58 S8        30.17F
FINDLAY        CLOUDY    47  37  68 SE9       30.19S
TOLEDO EXPRESS CLOUDY    47  34  60 S5        30.18F
TOLEDO METCALF CLOUDY    48  32  53 SE7       30.20F
LIMA           CLOUDY    46  39  76 S8        30.18F

$$
AND FOR LAKE MICHIGAN COASTAL AND OPEN LAKE BUOY OBSERVATIONS

STATION/POSITION TEMP    WIND        PRES    VSBY  WAVE
                 AIR SEA DIR/SP/G                  HT/PER
                 (F)     (DEG/KT/KT) (MB)    (MI)  (FT/S)
CALUMET HARBOR    41      50/  7/  9 1018.2R
MICHIGAN CITY     51     130/ 13/ 15   N/A
BURNS HARBOR      52     180/  8/ 15 1019.6S

$$
&&




USA.gov is the U.S. government's official web portal to all federal, state and local government web resources and services.